Flag for Spain Weather past 2 weeks in Valladolid, Spain

Now
41 °F

Low clouds.


Feels Like: 41 °F
Forecast: 31 / 46 °F
Wind: 2 mph from North

Location: Valladolid / Villanubla

Current Time: Dec 18, 2014 at 9:55:30 AM

Latest Report: Dec 18, 2014 at 9:30 AM


Visibility: 4 mi

Pressure: 30.42 "Hg

Humidity: 100%

Dew point: 41 °F

Location of ValladolidLocation

Historic Weather in Valladolid — Graph

°F

Valladolid temperature yesterday

Maximum temperature yesterday: 50 °F (at 2:30 PM)
Minimum temperature yesterday: 34 °F (at 7:00 AM)
Average temperature yesterday: 42 °F

Past Weeks' High & Low Weather Summary

 TemperatureHumidityPressure
High54 °F (Dec 16, 4:00 PM)100% (Dec 4, 7:00 AM)30.51 "Hg (Dec 4, 7:00 AM)
Low27 °F (Dec 8, 7:00 AM)46% (Dec 15, 2:30 PM)29.74 "Hg (Dec 13, 3:30 PM)
Average41 °F87%30.18 "Hg
* Reported Dec 3 8:00 AM — Dec 18 8:30 AM, Valladolid, Weather by CustomWeather, © 2014

Note: Actual official high and low records may vary slightly from our data, if they occured in-between our weather recording intervals... More about our weather records

Advertising

Valladolid weather history for previous 24 hours

 ConditionsComfort  
Time TempWeatherWind HumidityBarometerVisibility
8:30 AM
Dec 18
41 °FLow clouds.No wind100%30.39 "Hg5 mi
8:00 AM41 °FLow clouds.2 mph100%30.39 "HgN/A
7:30 AM41 °FLow clouds.No wind100%30.39 "HgN/A
7:00 AM41 °FLow clouds.No wind100%30.39 "HgN/A
9:30 PM
Dec 17
43 °FFog.5 mph100%30.36 "Hg0 mi
9:00 PM43 °FFog.7 mph100%30.36 "Hg0 mi
8:30 PM43 °FFog.6 mph100%30.36 "Hg0 mi
8:00 PM43 °FFog.7 mph100%30.33 "Hg0 mi
7:30 PM43 °FFog.6 mph100%30.33 "Hg0 mi
7:00 PM43 °FFog.5 mph100%30.33 "Hg0 mi
6:30 PM41 °FFog.5 mph100%30.33 "Hg0 mi
6:00 PM43 °FClear.2 mph100%30.30 "Hg10 mi
5:30 PM45 °FSunny.2 mph93%30.30 "Hg10 mi
5:00 PM46 °FScattered clouds.3 mph93%30.30 "HgN/A
4:30 PM48 °FPartly sunny.7 mph87%30.30 "HgN/A
4:00 PM48 °FPartly sunny.7 mph87%30.30 "HgN/A
3:30 PM48 °FPassing clouds.6 mph94%30.30 "HgN/A
3:00 PM50 °FPassing clouds.6 mph88%30.30 "HgN/A
2:30 PM50 °FPassing clouds.3 mph82%30.30 "HgN/A
2:00 PM46 °FLight fog.5 mph93%30.30 "Hg6 mi
1:30 PM45 °FSnow. Light fog.6 mph93%30.30 "Hg6 mi
1:00 PM45 °FSnow. Light fog.3 mph93%30.33 "HgN/A
12:30 PM46 °FLight fog.3 mph87%30.33 "Hg6 mi
12:00 PM45 °FPassing clouds.3 mph93%30.33 "HgN/A
11:30 AM43 °FPassing clouds.3 mph100%30.33 "HgN/A
11:00 AM41 °FClear.7 mph100%30.33 "Hg6 mi
10:30 AM39 °FClear.7 mph100%30.33 "Hg6 mi
10:00 AM37 °FClear.7 mph100%30.33 "Hg6 mi
9:30 AM36 °FFog.6 mph100%30.30 "Hg3 mi
9:00 AM34 °FLight fog.7 mph100%30.30 "Hg2 mi
Weather by CustomWeather, © 2014

See weather overviewHow to use our weather pages